EZY379 WSSS-WMKK

Flight info

Callsign EZY379
Flight time 0h 46m
Altitude 15000
Route MASBO5B MASBO A457 GUPTA GUPTA3J
Aircraft A20N/M-SDE2E3FGHIRWXY/LB1

Departure

Time 2026-05-06 13:44
Airport Singapore Changi Airport (WSSS)

Arrival

Time 2026-05-06 14:31
Airport Kuala Lumpur International Airport (WMKK)
Time Latitude Longitude Altitude Speed Heading
2026-05-06 13:23 1.36593 103.99582 28 ft 0 kts 201°
2026-05-06 13:31 1.36597 103.99584 28 ft 2 kts 200°
2026-05-06 13:32 1.36612 103.99589 28 ft 2 kts 202°
2026-05-06 13:32 1.36627 103.99596 28 ft 2 kts 203°
2026-05-06 13:32 1.36642 103.99602 28 ft 2 kts 206°
2026-05-06 13:32 1.36657 103.99610 28 ft 2 kts 211°
2026-05-06 13:33 1.36670 103.99620 28 ft 2 kts 225°
2026-05-06 13:33 1.36677 103.99634 28 ft 2 kts 274°
2026-05-06 13:33 1.36676 103.99641 28 ft 0 kts 287°
2026-05-06 13:38 1.36677 103.99638 28 ft 1 kts 289°
2026-05-06 13:39 1.36682 103.99623 28 ft 6 kts 289°
2026-05-06 13:39 1.36708 103.99560 28 ft 10 kts 293°
2026-05-06 13:39 1.36740 103.99474 28 ft 15 kts 277°
2026-05-06 13:39 1.36686 103.99409 28 ft 12 kts 201°
2026-05-06 13:40 1.36586 103.99402 28 ft 11 kts 136°
2026-05-06 13:40 1.36552 103.99469 28 ft 11 kts 112°
2026-05-06 13:40 1.36532 103.99517 28 ft 12 kts 112°
2026-05-06 13:40 1.36498 103.99597 28 ft 13 kts 112°
2026-05-06 13:41 1.36462 103.99684 28 ft 14 kts 114°
2026-05-06 13:41 1.36424 103.99773 28 ft 14 kts 112°
2026-05-06 13:41 1.36403 103.99822 28 ft 6 kts 114°
2026-05-06 13:41 1.36402 103.99824 28 ft 0 kts 114°
2026-05-06 13:42 1.36399 103.99830 28 ft 2 kts 114°
2026-05-06 13:42 1.36387 103.99849 28 ft 5 kts 127°
2026-05-06 13:42 1.36353 103.99872 29 ft 7 kts 159°
2026-05-06 13:43 1.36300 103.99882 29 ft 9 kts 172°
2026-05-06 13:43 1.36228 103.99891 30 ft 12 kts 174°
2026-05-06 13:43 1.36139 103.99873 30 ft 17 kts 202°
2026-05-06 13:43 1.35741 103.99705 33 ft 113 kts 202°
2026-05-06 13:44 1.34718 103.99280 106 ft 194 kts 204°
2026-05-06 13:44 1.33331 103.98718 591 ft 221 kts 205°
2026-05-06 13:44 1.31958 103.98131 2032 ft 214 kts 206°
2026-05-06 13:44 1.30546 103.97523 3080 ft 226 kts 206°
2026-05-06 13:45 1.29008 103.96860 3735 ft 259 kts 205°
2026-05-06 13:45 1.25133 103.95296 4709 ft 327 kts 197°
2026-05-06 13:45 1.22884 103.95246 6056 ft 329 kts 169°
2026-05-06 13:46 1.20854 103.96230 7740 ft 323 kts 146°
2026-05-06 13:46 1.19149 103.97641 9401 ft 314 kts 140°
2026-05-06 13:46 1.17624 103.99157 10972 ft 306 kts 130°
2026-05-06 13:46 1.16623 104.01015 12308 ft 307 kts 107°
2026-05-06 13:47 1.16468 104.03142 13447 ft 311 kts 81°
2026-05-06 13:47 1.17239 104.05183 14326 ft 323 kts 57°
2026-05-06 13:47 1.18557 104.07008 14806 ft 347 kts 50°
2026-05-06 13:47 1.20343 104.08808 14972 ft 380 kts 38°
2026-05-06 13:48 1.22665 104.10283 14993 ft 411 kts 27°
2026-05-06 13:48 1.25398 104.11272 14992 ft 438 kts 11°
2026-05-06 13:48 1.28339 104.11558 16738 ft 410 kts
2026-05-06 13:48 1.31115 104.11438 18397 ft 394 kts 348°
2026-05-06 13:49 1.33693 104.10520 19370 ft 397 kts 335°
2026-05-06 13:49 1.36270 104.09145 17424 ft 467 kts 322°
2026-05-06 13:49 1.38582 104.07251 19652 ft 394 kts 320°
2026-05-06 13:49 1.40611 104.05435 17974 ft 402 kts 315°
2026-05-06 13:50 1.42544 104.03278 16390 ft 422 kts 309°
2026-05-06 13:50 1.44450 104.01094 16062 ft 403 kts 311°
2026-05-06 13:50 1.46290 103.99130 16251 ft 371 kts 319°
2026-05-06 13:50 1.48437 103.97860 16232 ft 351 kts 341°
2026-05-06 13:51 1.50798 103.97514 16059 ft 337 kts 357°
2026-05-06 13:51 1.53052 103.97408 16007 ft 321 kts 354°
2026-05-06 13:51 1.55243 103.97151 16003 ft 315 kts 350°
2026-05-06 13:51 1.57418 103.96731 16001 ft 314 kts 346°
2026-05-06 13:52 1.59544 103.96204 16000 ft 315 kts 344°
2026-05-06 13:52 1.61628 103.95618 16000 ft 315 kts 343°
2026-05-06 13:52 1.63721 103.94989 16000 ft 315 kts 342°
2026-05-06 13:52 1.65845 103.94329 16000 ft 315 kts 341°
2026-05-06 13:53 1.67910 103.93626 15999 ft 314 kts 338°
2026-05-06 13:53 1.69884 103.92698 16000 ft 314 kts 330°
2026-05-06 13:53 1.71814 103.91750 15997 ft 314 kts 342°
2026-05-06 13:53 1.73921 103.91170 15998 ft 314 kts 338°
2026-05-06 13:54 1.75711 103.89933 16000 ft 311 kts 309°
2026-05-06 13:54 1.76629 103.88038 16002 ft 309 kts 281°
2026-05-06 13:54 1.76867 103.85902 16001 ft 310 kts 274°
2026-05-06 13:54 1.77018 103.83750 15999 ft 311 kts 274°
2026-05-06 13:55 1.77219 103.81594 16000 ft 311 kts 276°
2026-05-06 13:55 1.77469 103.79442 16000 ft 311 kts 277°
2026-05-06 13:55 1.77751 103.77294 16000 ft 311 kts 277°
2026-05-06 13:55 1.78052 103.75148 16000 ft 311 kts 278°
2026-05-06 13:56 1.78359 103.73026 16000 ft 311 kts 278°
2026-05-06 13:56 1.78679 103.70881 16000 ft 311 kts 279°
2026-05-06 13:56 1.79180 103.68778 16000 ft 311 kts 287°
2026-05-06 13:56 1.79867 103.66722 16000 ft 311 kts 289°
2026-05-06 13:57 1.80593 103.64683 16000 ft 311 kts 289°
2026-05-06 13:57 1.81324 103.62644 16000 ft 311 kts 289°
2026-05-06 13:57 1.82052 103.60610 16001 ft 311 kts 289°
2026-05-06 13:57 1.82784 103.58560 16001 ft 311 kts 289°
2026-05-06 13:58 1.83509 103.56526 16000 ft 311 kts 289°
2026-05-06 13:58 1.84229 103.54505 16000 ft 312 kts 289°
2026-05-06 13:58 1.84954 103.52469 16000 ft 311 kts 289°
2026-05-06 13:58 1.85681 103.50424 16000 ft 311 kts 289°
2026-05-06 13:59 1.86406 103.48387 16000 ft 312 kts 289°
2026-05-06 13:59 1.87134 103.46341 16000 ft 312 kts 289°
2026-05-06 13:59 1.87859 103.44302 16000 ft 312 kts 289°
2026-05-06 13:59 1.88584 103.42262 16000 ft 312 kts 289°
2026-05-06 14:00 1.89313 103.40214 16000 ft 312 kts 289°
2026-05-06 14:00 1.90041 103.38168 16000 ft 312 kts 289°
2026-05-06 14:00 1.90768 103.36123 16000 ft 312 kts 289°
2026-05-06 14:00 1.91493 103.34083 16000 ft 312 kts 289°
2026-05-06 14:01 1.92210 103.32067 16000 ft 312 kts 289°
2026-05-06 14:01 1.92939 103.30016 16000 ft 312 kts 289°
2026-05-06 14:01 1.93664 103.27978 16000 ft 312 kts 289°
2026-05-06 14:01 1.94391 103.25932 16000 ft 311 kts 289°
2026-05-06 14:02 1.95117 103.23891 16000 ft 311 kts 289°
2026-05-06 14:02 1.95841 103.21853 16000 ft 311 kts 289°
2026-05-06 14:02 1.96566 103.19814 16000 ft 311 kts 289°
2026-05-06 14:02 1.97291 103.17776 16000 ft 311 kts 289°
2026-05-06 14:03 1.98016 103.15736 15999 ft 311 kts 289°
2026-05-06 14:03 1.98740 103.13698 16000 ft 311 kts 289°
2026-05-06 14:03 1.99467 103.11654 16000 ft 311 kts 289°
2026-05-06 14:03 2.00192 103.09614 16000 ft 311 kts 289°
2026-05-06 14:04 2.00908 103.07598 16000 ft 311 kts 289°
2026-05-06 14:04 2.01634 103.05555 16000 ft 311 kts 289°
2026-05-06 14:04 2.02360 103.03513 16000 ft 311 kts 289°
2026-05-06 14:04 2.03085 103.01472 16001 ft 311 kts 289°
2026-05-06 14:05 2.03810 102.99431 16000 ft 311 kts 289°
2026-05-06 14:05 2.04537 102.97385 16000 ft 311 kts 289°
2026-05-06 14:05 2.05261 102.95348 16000 ft 311 kts 289°
2026-05-06 14:05 2.05988 102.93303 16000 ft 311 kts 289°
2026-05-06 14:06 2.06710 102.91269 16000 ft 311 kts 289°
2026-05-06 14:06 2.07437 102.89224 16000 ft 311 kts 289°
2026-05-06 14:06 2.08153 102.87207 16000 ft 311 kts 289°
2026-05-06 14:06 2.08878 102.85166 16001 ft 312 kts 289°
2026-05-06 14:07 2.09604 102.83123 15999 ft 312 kts 289°
2026-05-06 14:07 2.10329 102.81082 16000 ft 311 kts 289°
2026-05-06 14:07 2.11054 102.79041 16000 ft 311 kts 289°
2026-05-06 14:07 2.11780 102.76995 16000 ft 311 kts 289°
2026-05-06 14:08 2.12506 102.74952 16000 ft 311 kts 289°
2026-05-06 14:08 2.13232 102.72908 16000 ft 311 kts 289°
2026-05-06 14:08 2.13957 102.70867 16000 ft 311 kts 289°
2026-05-06 14:08 2.14681 102.68826 16000 ft 311 kts 289°
2026-05-06 14:09 2.15404 102.66792 15937 ft 310 kts 289°
2026-05-06 14:09 2.16118 102.64799 15636 ft 304 kts 290°
2026-05-06 14:09 2.16891 102.62888 15471 ft 293 kts 292°
2026-05-06 14:09 2.17664 102.61078 15372 ft 279 kts 292°
2026-05-06 14:10 2.18418 102.59330 15244 ft 268 kts 292°
2026-05-06 14:10 2.19140 102.57656 15113 ft 255 kts 292°
2026-05-06 14:10 2.19830 102.56056 14738 ft 248 kts 292°
2026-05-06 14:10 2.20511 102.54471 14232 ft 248 kts 292°
2026-05-06 14:11 2.21190 102.52895 13738 ft 246 kts 292°
2026-05-06 14:11 2.21865 102.51325 13233 ft 246 kts 292°
2026-05-06 14:11 2.22549 102.49736 12606 ft 249 kts 292°
2026-05-06 14:11 2.23234 102.48143 11974 ft 251 kts 292°
2026-05-06 14:12 2.23926 102.46538 11346 ft 252 kts 292°
2026-05-06 14:12 2.24610 102.44949 10902 ft 247 kts 292°
2026-05-06 14:12 2.25271 102.43416 10704 ft 232 kts 292°
2026-05-06 14:12 2.25897 102.41964 10410 ft 224 kts 292°
2026-05-06 14:13 2.26508 102.40544 10017 ft 221 kts 292°
2026-05-06 14:13 2.27113 102.39137 9613 ft 218 kts 292°
2026-05-06 14:13 2.27697 102.37781 9418 ft 206 kts 292°
2026-05-06 14:13 2.28262 102.36468 8977 ft 208 kts 292°
2026-05-06 14:14 2.28851 102.35096 8178 ft 224 kts 292°
2026-05-06 14:14 2.29480 102.33631 7499 ft 231 kts 292°
2026-05-06 14:14 2.30106 102.32177 7193 ft 221 kts 292°
2026-05-06 14:14 2.30691 102.30823 7111 ft 203 kts 292°
2026-05-06 14:15 2.31228 102.29578 6925 ft 191 kts 292°
2026-05-06 14:15 2.31749 102.28367 6606 ft 188 kts 292°
2026-05-06 14:15 2.32257 102.27185 6268 ft 186 kts 292°
2026-05-06 14:15 2.32768 102.25997 5909 ft 186 kts 292°
2026-05-06 14:16 2.33278 102.24810 5539 ft 186 kts 292°
2026-05-06 14:16 2.33791 102.23616 5088 ft 189 kts 292°
2026-05-06 14:16 2.34327 102.22370 4719 ft 200 kts 292°
2026-05-06 14:16 2.34884 102.21074 4633 ft 204 kts 292°
2026-05-06 14:17 2.35444 102.19774 4629 ft 203 kts 292°
2026-05-06 14:17 2.36006 102.18468 4640 ft 208 kts 292°
2026-05-06 14:17 2.36589 102.17112 4626 ft 213 kts 292°
2026-05-06 14:17 2.37177 102.15748 4642 ft 214 kts 292°
2026-05-06 14:18 2.37755 102.14405 4634 ft 207 kts 292°
2026-05-06 14:18 2.38321 102.13090 4632 ft 205 kts 292°
2026-05-06 14:18 2.38889 102.11770 4646 ft 212 kts 292°
2026-05-06 14:18 2.39485 102.10382 4629 ft 221 kts 292°
2026-05-06 14:19 2.40087 102.08983 4628 ft 223 kts 292°
2026-05-06 14:19 2.40694 102.07572 4635 ft 223 kts 292°
2026-05-06 14:19 2.41307 102.06147 4643 ft 223 kts 292°
2026-05-06 14:19 2.41919 102.04727 4632 ft 223 kts 292°
2026-05-06 14:20 2.42531 102.03304 4639 ft 223 kts 292°
2026-05-06 14:20 2.43144 102.01879 4633 ft 223 kts 292°
2026-05-06 14:20 2.43747 102.00451 4639 ft 223 kts 290°
2026-05-06 14:20 2.44313 101.99001 4636 ft 223 kts 290°
2026-05-06 14:21 2.44880 101.97539 4636 ft 224 kts 290°
2026-05-06 14:21 2.45435 101.96111 4638 ft 224 kts 290°
2026-05-06 14:21 2.46001 101.94655 4639 ft 224 kts 290°
2026-05-06 14:21 2.46567 101.93205 4629 ft 224 kts 290°
2026-05-06 14:22 2.46984 101.92263 4639 ft 218 kts 294°
2026-05-06 14:22 2.47984 101.90664 4664 ft 193 kts 307°
2026-05-06 14:22 2.48928 101.89736 4696 ft 190 kts 317°
2026-05-06 14:22 2.49985 101.88963 4760 ft 187 kts 322°
2026-05-06 14:23 2.51062 101.88241 4784 ft 186 kts 322°
2026-05-06 14:23 2.52140 101.87516 4829 ft 186 kts 322°
2026-05-06 14:23 2.52851 101.87037 4842 ft 186 kts 322°
2026-05-06 14:23 2.54256 101.86088 4867 ft 183 kts 322°
2026-05-06 14:24 2.54961 101.85612 4800 ft 185 kts 322°
2026-05-06 14:24 2.56032 101.84890 4583 ft 186 kts 322°
2026-05-06 14:24 2.57091 101.84177 4322 ft 178 kts 323°
2026-05-06 14:24 2.58087 101.83507 4035 ft 168 kts 323°
2026-05-06 14:25 2.59052 101.82856 3784 ft 167 kts 322°
2026-05-06 14:25 2.59995 101.82221 3533 ft 155 kts 322°
2026-05-06 14:25 2.60847 101.81647 3343 ft 142 kts 322°
2026-05-06 14:25 2.61638 101.81114 3159 ft 133 kts 322°
2026-05-06 14:26 2.62393 101.80607 2984 ft 129 kts 321°
2026-05-06 14:26 2.63134 101.80096 2736 ft 129 kts 321°
2026-05-06 14:26 2.63871 101.79591 2448 ft 128 kts 322°
2026-05-06 14:26 2.64603 101.79102 2118 ft 128 kts 323°
2026-05-06 14:27 2.65347 101.78630 1831 ft 126 kts 324°
2026-05-06 14:27 2.66079 101.78155 1595 ft 125 kts 321°
2026-05-06 14:27 2.66794 101.77660 1429 ft 125 kts 320°
2026-05-06 14:27 2.67502 101.77154 1300 ft 125 kts 321°
2026-05-06 14:28 2.68223 101.76668 1223 ft 125 kts 322°
2026-05-06 14:28 2.68949 101.76193 1092 ft 125 kts 323°
2026-05-06 14:28 2.69677 101.75715 1030 ft 126 kts 320°
2026-05-06 14:28 2.70385 101.75204 974 ft 125 kts 320°
2026-05-06 14:29 2.71103 101.74710 896 ft 126 kts 322°
2026-05-06 14:29 2.71836 101.74236 750 ft 125 kts 321°
2026-05-06 14:29 2.72548 101.73744 567 ft 125 kts 323°
2026-05-06 14:29 2.73272 101.73249 393 ft 126 kts 322°
2026-05-06 14:30 2.73995 101.72759 266 ft 126 kts 324°
2026-05-06 14:30 2.74725 101.72275 110 ft 126 kts 322°
2026-05-06 14:30 2.75416 101.71806 54 ft 105 kts 326°
2026-05-06 14:30 2.75921 101.71469 54 ft 81 kts 327°
2026-05-06 14:31 2.76256 101.71254 57 ft 44 kts 327°
2026-05-06 14:31 2.76451 101.71112 55 ft 15 kts 316°
2026-05-06 14:31 2.76532 101.71018 59 ft 19 kts 303°
2026-05-06 14:31 2.76568 101.70948 56 ft 0 kts 291°
2026-05-06 14:32 2.76576 101.70926 59 ft 10 kts 290°
2026-05-06 14:32 2.76551 101.70852 58 ft 13 kts 214°
2026-05-06 14:32 2.76516 101.70856 55 ft 7 kts 152°
2026-05-06 14:33 2.76501 101.70864 56 ft 0 kts 151°
2026-05-06 14:33 2.76488 101.70872 56 ft 7 kts 147°
2026-05-06 14:34 2.76414 101.70922 60 ft 17 kts 146°
2026-05-06 14:34 2.76299 101.70999 58 ft 23 kts 146°
2026-05-06 14:34 2.76161 101.71094 55 ft 26 kts 146°
2026-05-06 14:34 2.76001 101.71199 59 ft 29 kts 147°
2026-05-06 14:35 2.75855 101.71299 58 ft 24 kts 146°
2026-05-06 14:35 2.75731 101.71382 55 ft 21 kts 146°
2026-05-06 14:35 2.75605 101.71469 60 ft 23 kts 147°
2026-05-06 14:35 2.75468 101.71558 60 ft 24 kts 146°
2026-05-06 14:36 2.75325 101.71651 60 ft 19 kts 147°
2026-05-06 14:36 2.75251 101.71694 60 ft 1 kts 160°
2026-05-06 14:36 2.75241 101.71697 53 ft 2 kts 161°
2026-05-06 14:36 2.75211 101.71698 57 ft 5 kts 198°
2026-05-06 14:37 2.75179 101.71669 57 ft 7 kts 234°
2026-05-06 14:37 2.75149 101.71610 55 ft 12 kts 239°
2026-05-06 14:37 2.75094 101.71528 56 ft 16 kts 236°
2026-05-06 14:37 2.75049 101.71462 59 ft 11 kts 233°
2026-05-06 14:38 2.74994 101.71451 59 ft 8 kts 164°
2026-05-06 14:38 2.74961 101.71470 59 ft 1 kts 147°
2026-05-06 14:38 2.74953 101.71475 53 ft 0 kts 147°